Starlink 36039

operational
NORAD ID: 66612 Int'l Des: 2025-270 Owner: SPXS Country: US Constellation: starlink
LEOCIRCULAR

关于 Starlink 36039

正在加载描述...

实时位置

正在加载3D地球...

即将过境

高度历史

Altitude vs Time

uPlot chart will show altitude changes over time

两行轨道根数

1 66612U 25270AA 26073.91943208 .00035413 00000-0 12897-2 0 9996
2 66612 43.0039 26.8221 0001324 264.4000 95.6701 15.27594198 18502
Epoch: Mar 14, 2026 • Age: 14 hours

当前状态

高度 494.9 km
速度 7.62 km/s
星下点 -42.04°S, 41.3°W
发射日期 Nov 22, 2025
运行时间 0.3 years
类型 internet

技术详情

分类 Payload
质量 575.00 kg
干质量 530.00 kg
总质量 575.00 kg
长度 0.30 m
直径 4.10 m
跨度 29.00 m
形状 Box + pan
制造商 SPXS
平台类型 Starlink V2MO
阶段状态 In Orbit
所有者/国家 SPXS/US

大型星座

Loading constellations...